Location: Stoke Bliss
(52.2667°N, 2.5167°W)
Time: 21:32:40
(UTC+00:00)

FALCON 9 DEB - Pass Details

Date: 03 March 2021
Orbit: 371 x 387 km, 53.0° (Epoch: 15 April)

Event Time Altitude Azimuth Distance (km) Brightness Sun altitude
Rises 19:11:56 0° 274° (W) 2,297 8.9 -12.8°
Reaches altitude 10° 19:14:00 10° 276° (W) 1,440 7.3 -13.1°
Maximum altitude 19:17:14 76° 2° (N) 413 2.9 -13.6°
Enters shadow 19:18:45 28° 84° (E) 775 3.8 -13.8°
